TLV R/B, 58501

Orbit data source: Space-Track

TLV R/B, 58501 is space debris in LEO originally from a launch on Mon, 04 Dec 2023 UTC launched from the Jeju Sea Launch Area (JJSLA). Debris objects in space refer to the collection of defunct objects orbiting the Earth. Examples of debris include non-operational satellites, rocket bodies, and fragments generated from explosions, collisions, or faulty payload assembly.

Loading next visibility...
Identifier
58501, 2023-188B
Orbit
LEO
Country
Flag of UnknownUnknown / SKOR
Related business
Manufacturer
Hanwha
Mission
Spacecraft
Bus & Motor
GYUB4, Unknown motor
Mass
~100 kg wet, ~100 kg dry
Launch date (UTC)
2023-12-04 (2 years ago)
Launch vehicle
Unknown
Launch site
Jeju Sea Launch Area (JJSLA)
Object type
Payload
Rocket body
Debris
Shape & HBR
Cyl, 0.9 m
Radar Cross Section
1.806 m², Large (>1 m²)

Expand to show TLE details & history
Last TLE update: 2 days ago

TLE from 2 days ago
0 TLV R/B
1 58501U 23188B   25292.03928054  .00012464  00000-0  41049-3 0  9990
2 58501  46.9180 178.1586 0123963 227.4673 131.5717 15.24539310103956
Epoch: 2025-10-19T00:56Z
TLE epoch observation values (Epoch: 2025-10-19T00:56:33.838Z)
Latitude
-0.00006°
Longitude
136.25589°
Altitude
549.472 km
Speed
7.557 km/s
True Right ascension
11h 52m 38s
True Declination
0° 00' 00"
Sunlit
Object was in daylight at epoch
Visualization orbit readout
Latitude
Unknown
Longitude
Unknown
Altitude
Unknown
Speed
Unknown
Apparent Right ascension
Unknown
Apparent Declination
Unknown
Sunlit
N/A
Visualization observer readout
Local Sidereal Time
14:27:06
Azimuth
Unknown
Elevation
Unknown
Doppler factor
Unknown
Orbital elements
Apogee altitude
578.637 km
Perigee altitude
408.272 km
Semi-major axis
6,871.592 km
Eccentricity
0.0124
Inclination
46.918°
RAAN
178.1586°
Arg. of periapsis
227.4673°
True anomaly
132.62354°
Mean anomaly
131.5717°
Eccentric anomaly
132.0987°
Mean motion
3.81028 °/min
Orbital period
94.48 mins
BSTAR
0.00041049
Loading maneuver chart data...
Computing Atmospheric mass density...
Loading historical data...
Loading historical data...
Loading historical data...
Loading historical data...
Loading historical data...
Loading historical data...
Loading historical data...
Other satellites on launch #188 in the year 2023 (2023-12-04 UTC)

Documentation

Showing up to 5 results
|